Weather in Wolverhampton

United Kingdom     52°35′39″N   2°07′24″W
temp.,
°C
wind,
m/s
gust,
m/s
humid.,
%
clouds,
%
prec.,
mm/h
press.,
hPa
HPBL,
m
9 may, sun
sun901:00+12ssw81693100 0.8 996962
04:00+11ssw61398100 1.6 994842
07:00+11ssw61496100 3.6 9941181
10:00+13ssw71279100 0.2 9951166
13:00+15sw81363100 0.2 9941649
16:00+13ssw61176100 0.2 9941231
19:00+13s61074100 0.3 9941029
22:00+10s51182100 0.0 994595
10 may, mon
mon1001:00+8s51287100 0.0 995569
04:00+9s61183100 0.0 9941019
07:00+9s61177100 0.1 9951084
10:00+10s71378100 0.0 9961368
13:00+12ssw7138052 0.4 9971377
16:00+12ssw8138266 1.4 9991499
19:00+11sw610770 2.0 10011132
22:00+6ssw38860 0.0 1004233
11 may, tue
tue1101:00+5sse3689100 0.0 1006133
04:00+5sse259490 0.0 1006115
07:00+7se2686100 0.0 1006211
10:00+11sse4773100 0.2 10061074
13:00+12sse5775100 1.9 10061206
16:00+12s587745 1.6 10051279
19:00+12s596816 2.1 10051188
22:00+8sse4118623 0.0 1006477
12 may, wed
wed1201:00+7s4119646 0.1 1006380
04:00+8s41089100 0.0 1006538
07:00+8s48840 0.0 1007571
10:00+11ssw5764100 0.0 10071146
13:00+12ssw576184 0.2 10071395
16:00+12ssw566981 0.9 10071312
19:00+9s3789100 1.8 1007355
22:00+8s269398 0.2 1008162
13 may, thu
thu1301:00+6sse129429 0.2 100717
04:00+6se119572 0.0 100739
07:00+7sse129324 0.0 1008141
10:00+11se227451 0.1 1008854
13:00+13se226382 0.7 10071300
16:00+13ese337191 1.5 1007917
19:00+12se2383100 3.8 1007330
22:00+9se1292100 2.6 100734